Location: Home
(42.5358°N, 72.7383°W)
Time: 22:17:24
(UTC-05:00)

Altair - Pass Details

Date: 06 December 2021
Orbit: 1501 x 1683 km, 47.2° (Epoch: 26 January)

Event Time Altitude Azimuth Distance (km) Brightness Sun altitude
Rises 19:33:37 0° 292° (WNW) 4,697 10.9 -35.3°
Reaches altitude 10° 19:36:42 10° 293° (WNW) 3,695 10.2 -35.8°
Enters shadow 19:45:26 81° 298° (WNW) 1,523 7.3 -37.4°
